Terug naar catalogus

TITAN 3C TRANSTAGE DEB

LostHEO
NORAD 26526·DEBRIS·🇺🇸 United States

Gelanceerd Dec 21, 1965 vanaf Cape Canaveral Space Force Station

Loading…

Volgende Passages (komende 24 uur)

TLE

VerouderdSource: Space-Track

Epoch: Oct 24, 2024, 05:47 UTC

1 26526U 65108AM  24298.24131281  .00000584  00000-0  35549-2 0  9993
2 26526  27.0953 271.9805 6511654 243.4914 289.0941  3.11000988273876

Volg TITAN 3C TRANSTAGE DEB in realtime met AllMySat

Download on the App Store